Location: Unspecified
(0.0000°N, 0.0000°E)
Time: 04:01:58
(UTC+00:00)

Okean 3 - Pass Details

Date: 29 May 2019
Orbit: 578 x 600 km, 82.5° (Epoch: 25 June)

Event Time Altitude Azimuth Distance (km) Brightness Sun altitude
Exits shadow 18:43:04 11° 84° (E) 1,810 5.4 -10.6°
Drops below altitude 10° 18:43:49 10° 74° (ENE) 1,884 5.6 -10.8°
Sets 18:47:26 0° 41° (NE) 2,777 6.7 -11.6°
